Regional Weather Roundup
Issued by NWS

Home | Current Version | Previous Version | Text Only | Print | Product List | Glossary Off
Versions: 1 2 3 4 5 6 7 8 9 10 11 12 13 14 15 16 17 18 19 20 21 22 23 24 25 26 27 28 29 30 31 32 33 34 35 36 37 38 39 40 41 42 43 44 45 46 47 48 49 50

000
ASUS43 KOAX 300302
RWRNE

WEATHER ROUNDUP FOR NEBRASKA
NATIONAL WEATHER SERVICE OMAHA NE
1000 PM CDT FRI MAY 29 2015

NOTES: SATELLITE DATA IS BEING USED TO AUGMENT CLOUD COVER ABOVE
       12000 FEET.
       "FAIR" INDICATES FEW OR NO CLOUDS BELOW 12,000 FEET WITH NO
       SIGNIFICANT WEATHER AND/OR OBSTRUCTIONS TO VISIBILITY.

  * THESE STATIONS DO NOT REPORT WEATHER SUCH AS RAIN...SNOW OR FOG.

NEZ001>004-019>022-054>056-300400-
NEBRASKA PANHANDLE

CITY           SKY/WX    TMP DP  RH WIND       PRES   REMARKS
SCOTTSBLUFF    CLOUDY    49  46  90 E6        30.30F
ALLIANCE       CLOUDY    47  44  90 NW7       30.28S
CHADRON        CLOUDY    48  46  93 SW5       30.29S
KIMBALL          N/A    N/A N/A N/A MISG        N/A
SIDNEY         CLOUDY    48  44  86 N13       30.30R
$$

NEZ057>060-069>072-079>082-300400-
SOUTHWEST NEBRASKA

CITY           SKY/WX    TMP DP  RH WIND       PRES   REMARKS
NORTH PLATTE   CLOUDY    50  45  83 N13G20    30.23R
IMPERIAL       CLOUDY    51  45  79 N15       30.25R
LEXINGTON      CLOUDY    52  47  85 N10       30.20R
MCCOOK         CLOUDY    53  47  79 N16G26    30.20R
$$

NEZ005>010-023>029-035>040-094-300400-
NORTH CENTRAL NEBRASKA

CITY           SKY/WX    TMP DP  RH WIND       PRES   REMARKS
VALENTINE      PTCLDY    45  43  93 NW7       30.25R
AINSWORTH      CLOUDY    48  45  90 N13G18    30.22S
BROKEN BOW     CLOUDY    51  45  79 N21       30.19R
ORD            CLOUDY    50  46  86 N16       30.17R
$$

NEZ041-046>049-061>064-073>077-083>087-300400-
SOUTH CENTRAL NEBRASKA

CITY           SKY/WX    TMP DP  RH WIND       PRES   REMARKS
GRAND ISLAND   CLOUDY    53  46  77 N26G36    30.14R
AURORA         CLOUDY    54  50  87 N23G29    30.13R
HASTINGS       CLOUDY    54  47  77 N25G32    30.11S
HEBRON         LGT RAIN  57  49  74 N16G22    30.09R
HOLDREGE       CLOUDY    53  48  83 N22G28    30.16R
KEARNEY *      CLOUDY    54  45  71 N25       30.16R
YORK           CLOUDY    54  50  87 N22G31    30.12R
$$

NEZ011>018-030>034-042>045-300400-
NORTHEAST NEBRASKA

CITY           SKY/WX    TMP DP  RH WIND       PRES   REMARKS
NORFOLK        CLOUDY    51  47  86 N18G28    30.12R
ALBION         CLOUDY    49  46  88 N20G29    30.13R
BLAIR          CLOUDY    57  53  84 N20G28    30.03R
COLUMBUS *     CLOUDY    54  45  71 N20G29    30.11R
FREMONT        CLOUDY    57  51  81 NW17G25   30.08R
TEKAMAH        CLOUDY    58  52  80 N22       30.06R
WAYNE          CLOUDY    51  48  92 N20G25    30.12R
$$

NEZ050>053-065>068-078-088>093-300400-
SOUTHEAST NEBRASKA

CITY           SKY/WX    TMP DP  RH WIND       PRES   REMARKS
LINCOLN        CLOUDY    59  52  77 N26G32    30.07R
OMAHA EPPLEY   CLOUDY    59  55  87 N25G33    30.01R
BEATRICE       CLOUDY    60  56  86 N24       30.05R
FALLS CITY     CLOUDY    68  65  90 S7        29.94R
NEBRASKA CITY  DRIZZLE   65  64  97 N17G24    29.99R
PLATTSMOUTH    CLOUDY    61  57  88 NW16G25   30.01R
$$

NEZ044-045-051>053-067-300400-
OMAHA AREA

CITY           SKY/WX    TMP DP  RH WIND       PRES   REMARKS
OMAHA EPPLEY   CLOUDY    59  55  87 N25G33    30.01R
BLAIR          CLOUDY    57  53  84 N20G28    30.03R
FREMONT        CLOUDY    57  51  81 NW17G25   30.08R
MILLARD        CLOUDY    61  56  83 NW12G23   30.03R
PLATTSMOUTH    CLOUDY    61  57  88 NW16G25   30.01R
WAHOO          CLOUDY    56  52  85 N23G36    30.07R
$$


USA.gov is the U.S. government's official web portal to all federal, state and local government web resources and services.